DW1121 Weather Reports


time (UTC)temp
C
wind
direction
speed
KPH
gust
KPH
rain 1hr
cm
rain 24hr
cm
rain mn
cm
humidity
%
barometer
mb
20260504060104 6 135 0.0 0.0 0.00 0.00 0.00 82 1018.2
20260504050604 6 176 0.0 0.0 0.00 0.00 0.00 79 1018.3
20260504045604 6 140 0.0 0.0 0.00 0.00 0.00 78 1018.2
20260504045104 6 145 0.0 0.0 0.00 0.00 0.00 78 1018.0
20260504044604 6 135 0.0 0.0 0.00 0.00 0.00 77 1018.0
20260504044104 6 145 0.0 0.0 0.00 0.00 0.00 77 1018.0
20260504043604 7 174 0.0 0.0 0.00 0.00 0.00 77 1018.1
20260504043104 7 180 0.0 0.0 0.00 0.00 0.00 75 1018.1
20260504042604 7 180 0.0 0.0 0.00 0.00 0.00 75 1017.9
20260504042104 7 153 0.0 0.0 0.00 0.00 0.00 74 1017.9
20260504041104 7 112 0.0 0.0 0.00 0.00 0.00 74 1018.0
20260504040104 7 248 0.0 0.0 0.00 0.00 0.00 73 1017.9
20260504035606 7 186 0.0 0.0 0.00 0.00 0.00 73 1017.9
20260504035104 7 107 0.0 0.0 0.00 0.00 0.00 72 1017.8
20260504034603 7 112 0.0 0.0 0.00 0.00 0.00 73 1017.8
20260504033603 7 204 0.0 0.0 0.00 0.00 0.00 71 1017.6
20260504033103 8 202 0.0 0.0 0.00 0.00 0.00 71 1017.6
20260504032604 8 202 0.0 0.0 0.00 0.00 0.00 72 1017.6
20260504032104 8 181 0.0 0.0 0.00 0.00 0.00 73 1017.6
20260504031604 8 150 0.0 0.0 0.00 0.00 0.00 71 1017.6
20260504031104 8 121 0.0 0.0 0.00 0.00 0.00 72 1017.6
20260504030104 8 134 0.0 0.0 0.00 0.00 0.00 71 1017.5
20260504025604 8 158 0.0 0.0 0.00 0.00 0.00 70 1017.5
20260504025104 9 147 0.0 0.0 0.00 0.00 0.00 68 1017.6
20260504024603 9 202 0.0 0.0 0.00 0.00 0.00 68 1017.6
20260504024103 9 84 0.0 0.0 0.00 0.00 0.00 69 1017.6
20260504023605 9 45 0.0 0.0 0.00 0.00 0.00 68 1017.6
20260504022604 10 158 1.6 1.6 0.00 0.00 0.00 66 1017.6
20260504021604 10 169 0.0 0.0 0.00 0.00 0.00 63 1017.6
20260504021103 10 202 0.0 0.0 0.00 0.00 0.00 61 1017.4
20260504020604 10 338 0.0 0.0 0.00 0.00 0.00 62 1017.4
20260504020104 10 229 0.0 0.0 0.00 0.00 0.00 61 1017.2
20260504015604 11 311 0.0 0.0 0.00 0.00 0.00 60 1017.2
20260504015104 11 303 0.0 0.0 0.00 0.00 0.00 59 1017.1
20260504014603 11 289 0.0 0.0 0.00 0.00 0.00 58 1017.1
20260504014104 11 350 0.0 0.0 0.00 0.00 0.00 56 1017.1
20260504013604 11 255 0.0 0.0 0.00 0.00 0.00 55 1017.1
20260504012604 11 319 0.0 0.0 0.00 0.00 0.00 54 1017.0
20260504012103 11 270 0.0 0.0 0.00 0.00 0.00 54 1017.0
20260504011604 12 260 0.0 0.0 0.00 0.00 0.00 53 1017.0
20260504011104 12 212 0.0 1.6 0.00 0.00 0.00 53 1017.1
20260504010604 12 270 0.0 0.0 0.00 0.00 0.00 51 1017.1
20260504010104 12 270 0.0 0.0 0.00 0.00 0.00 48 1016.9
20260504005604 12 283 0.0 0.0 0.00 0.00 0.00 48 1016.9
20260504005106 13 322 0.0 0.0 0.00 0.00 0.00 47 1016.7
20260504004603 13 270 0.0 0.0 0.00 0.00 0.00 46 1016.7
20260504004104 13 270 0.0 1.6 0.00 0.00 0.00 44 1016.7
20260504003605 13 281 1.6 1.6 0.00 0.00 0.00 43 1016.6
20260504002605 13 307 3.2 4.8 0.00 0.00 0.00 43 1016.6
20260504001104 14 277 1.6 3.2 0.00 0.00 0.00 41 1016.5
20260504000604 15 274 1.6 3.2 0.00 0.00 0.00 40 1016.5
20260503235605 15 260 1.6 3.2 0.00 0.00 0.00 38 1016.6
20260503235104 15 267 1.6 1.6 0.00 0.00 0.00 38 1016.7
20260503234604 16 273 1.6 3.2 0.00 0.00 0.00 37 1016.7
20260503234104 16 321 3.2 3.2 0.00 0.00 0.00 37 1016.7
20260503233603 16 326 3.2 3.2 0.00 0.00 0.00 36 1016.7
20260503233103 16 337 1.6 4.8 0.00 0.00 0.00 34 1016.7
20260503232104 17 53 1.6 3.2 0.00 0.00 0.00 32 1016.6
20260503231103 17 309 3.2 4.8 0.00 0.00 0.00 33 1016.6
20260503230104 17 291 3.2 9.7 0.00 0.00 0.00 30 1016.7
20260503225604 17 270 3.2 8.0 0.00 0.00 0.00 28 1016.7
20260503225104 18 323 1.6 4.8 0.00 0.00 0.00 29 1016.7
20260503224604 18 294 3.2 4.8 0.00 0.00 0.00 26 1016.7
20260503224104 18 277 3.2 11.3 0.00 0.00 0.00 27 1016.7
20260503222604 18 292 3.2 4.8 0.00 0.00 0.00 27 1016.6
20260503222105 19 257 3.2 8.0 0.00 0.00 0.00 27 1016.6
20260503221603 19 258 4.8 8.0 0.00 0.00 0.00 26 1016.6
20260503221104 19 57 3.2 8.0 0.00 0.00 0.00 28 1016.7
20260503220605 20 294 4.8 8.0 0.00 0.00 0.00 25 1016.7
20260503220104 20 348 3.2 8.0 0.00 0.00 0.00 26 1016.7
20260503215604 20 242 3.2 3.2 0.00 0.00 0.00 24 1016.7
20260503213604 21 318 3.2 8.0 0.00 0.00 0.00 23 1016.9
20260503213104 21 291 4.8 4.8 0.00 0.00 0.00 24 1016.9
20260503212604 21 233 3.2 9.7 0.00 0.00 0.00 25 1016.9
20260503212106 21 353 4.8 9.7 0.00 0.00 0.00 26 1016.9
20260503211604 21 292 3.2 8.0 0.00 0.00 0.00 24 1017.0
20260503210604 21 4 4.8 8.0 0.00 0.00 0.00 26 1017.1
20260503210104 21 9 6.4 12.9 0.00 0.00 0.00 24 1017.3
20260503205603 21 300 4.8 9.7 0.00 0.00 0.00 25 1017.3
20260503205104 21 277 3.2 8.0 0.00 0.00 0.00 24 1017.2
20260503204604 21 236 3.2 8.0 0.00 0.00 0.00 25 1017.2
20260503204104 21 40 1.6 3.2 0.00 0.00 0.00 27 1017.2
20260503203104 21 55 1.6 4.8 0.00 0.00 0.00 24 1017.5
20260503202604 21 326 3.2 4.8 0.00 0.00 0.00 25 1017.5
20260503202104 21 273 1.6 8.0 0.00 0.00 0.00 24 1017.5
20260503201604 21 218 1.6 3.2 0.00 0.00 0.00 25 1017.5
20260503200604 21 175 1.6 4.8 0.00 0.00 0.00 26 1017.7
20260503200104 21 339 3.2 4.8 0.00 0.00 0.00 25 1017.9
20260503195604 21 25 3.2 4.8 0.00 0.00 0.00 26 1017.9
20260503195105 21 257 6.4 9.7 0.00 0.00 0.00 24 1018.0
20260503194605 21 185 3.2 3.2 0.00 0.00 0.00 25 1018.0
20260503194104 21 273 1.6 4.8 0.00 0.00 0.00 24 1018.0
20260503193604 21 317 3.2 11.3 0.00 0.00 0.00 24 1018.3
20260503193105 21 244 8.0 16.1 0.00 0.00 0.00 24 1018.3
20260503192604 21 22 8.0 11.3 0.00 0.00 0.00 24 1018.3
20260503192104 21 11 6.4 12.9 0.00 0.00 0.00 22 1018.3
20260503191104 21 162 9.7 14.5 0.00 0.00 0.00 24 1018.4
20260503190604 21 309 6.4 14.5 0.00 0.00 0.00 21 1018.4
20260503185604 21 2 4.8 16.1 0.00 0.00 0.00 22 1018.5
20260503185104 20 170 1.6 3.2 0.00 0.00 0.00 23 1018.7
20260503184604 21 282 3.2 4.8 0.00 0.00 0.00 26 1018.7
20260503183604 21 303 3.2 3.2 0.00 0.00 0.00 24 1018.8
20260503182604 20 196 3.2 4.8 0.00 0.00 0.00 26 1018.9
20260503182104 20 262 3.2 16.1 0.00 0.00 0.00 25 1018.9
20260503181604 20 202 3.2 4.8 0.00 0.00 0.00 25 1018.9
20260503180604 20 251 1.6 3.2 0.00 0.00 0.00 27 1018.9
20260503180104 20 132 3.2 8.0 0.00 0.00 0.00 26 1019.0
20260503175604 20 198 4.8 8.0 0.00 0.00 0.00 26 1019.0
20260503175105 20 225 4.8 8.0 0.00 0.00 0.00 27 1019.1
20260503174104 19 206 3.2 4.8 0.00 0.00 0.00 28 1019.1
20260503173605 19 19 4.8 4.8 0.00 0.00 0.00 28 1019.2
20260503173104 19 214 4.8 8.0 0.00 0.00 0.00 32 1019.2
20260503172604 20 174 4.8 8.0 0.00 0.00 0.00 30 1019.3
20260503172104 20 191 4.8 8.0 0.00 0.00 0.00 30 1019.3
20260503171105 18 270 1.6 8.0 0.00 0.00 0.00 30 1019.6
20260503170110 18 155 6.4 9.7 0.00 0.00 0.00 30 1019.6
20260503160105 16 193 4.8 9.7 0.00 0.00 0.00 40 1020.0
20260503150605 14 203 0.0 9.7 0.00 0.00 0.00 47 1020.4
20260503150104 15 22 4.8 8.0 0.00 0.00 0.00 46 1020.3
20260503140104 11 57 0.0 0.0 0.00 0.00 0.00 65 1020.4
20260503131105 7 182 0.0 1.6 0.00 0.00 0.00 84 1020.3
20260503130105 6 213 0.0 0.0 0.00 0.00 0.00 86 1020.5
20260503120106 3 184 0.0 0.0 0.00 0.00 0.00 89 1020.1
20260503110606 2 112 0.0 0.0 0.00 0.00 0.00 89 1019.0
20260503110106 2 118 0.0 0.0 0.00 0.00 0.00 89 1018.8
20260503100105 3 202 0.0 0.0 0.00 0.00 0.00 89 1018.4
20260503090105 3 202 0.0 0.0 0.00 0.00 0.00 88 1018.0
20260503081604 4 192 0.0 0.0 0.00 0.00 0.00 87 1017.6
20260503081104 4 90 0.0 0.0 0.00 0.00 0.00 87 1017.5
20260503080605 5 163 0.0 0.0 0.00 0.00 0.00 87 1017.5
20260503080104 5 178 0.0 0.0 0.00 0.00 0.00 87 1017.5
20260503072604 5 132 0.0 0.0 0.00 0.00 0.00 88 1017.3
20260503072105 5 160 0.0 0.0 0.00 0.00 0.00 88 1017.3
20260503071604 5 158 0.0 0.0 0.00 0.00 0.00 88 1017.3
20260503071104 5 190 0.0 0.0 0.00 0.00 0.00 88 1017.2
20260503070604 5 268 1.6 3.2 0.00 0.00 0.00 88 1017.2
20260503070104 5 270 0.0 3.2 0.00 0.00 0.00 88 1017.0